User: anonymous   Login
Location: Unspecified
(0.0000°N, 0.0000°E)
Time: 06:57:39
(UTC+01:00)
Language:

IUS-9 SRM-1 - Orbit

View from above orbital plane
View from above orbital plane
View from above satellite
View from above satellite

Ground track
Ground track

The orbit data is extracted from the following two-line orbital elements,

1 19884U 89021C   17328.21448058 +.00014821 +00000-0 +87676-3 0  9996
2 19884 026.3645 234.0187 5943183 163.9017 229.1077 04.18170331340657
Epoch (UTC): 24 November 2017 05:08:51
Eccentricity: 0.5943183
inclination: 26.3645°
perigee height: 224 km
apogee height: 19568 km
right ascension of ascending node: 234.0187°
argument of perigee: 163.9017°
revolutions per day: 4.18170331
mean anomaly at epoch: 229.1077°
orbit number at epoch: 34065

The dashed part of the orbit path shows where the satellite is in the earth's shadow,  

DLR